Home > Weather > Larvik > Past weeks

Flag for Norway Past Weather in Larvik, Norway — Yesterday and Last 2 Weeks

Now
59 °F

Passing clouds.


Feels Like: 58 °F
Forecast: 57 / 67 °F
Wind: 8 mph from Southwest

Location: Torp

Current Time: Jul 28, 2016 at 6:46:58 AM

Latest Report: Jul 28, 2016 at 5:50 AM


Visibility: N/A

Pressure: 29.74 "Hg

Humidity: 100%

Dew Point: 59 °F

Location of LarvikLocation

Past Weather in Larvik — Graph

°F

Larvik Temperature Yesterday

Maximum temperature yesterday: 66 °F (at 1:50 PM)
Minimum temperature yesterday: 55 °F (at 2:20 AM)
Average temperature yesterday: 61 °F

High & Low Weather Summary for the Past Weeks

 TemperatureHumidityPressure
High75 °F (Jul 21, 1:20 PM)100% (Jul 13, 5:20 AM)30.15 "Hg (Jul 13, 5:20 AM)
Low50 °F (Jul 17, 4:50 AM)44% (Jul 16, 5:20 PM)29.59 "Hg (Jul 13, 5:20 AM)
Average63 °F86%29.95 "Hg
* Reported Jul 13 5:20 AM — Jul 28 5:50 AM, Larvik, Weather by CustomWeather, © 2016

Note: Actual official high and low records may vary slightly from our data, if they occured in-between our weather recording intervals... More about our weather records

Advertising

Larvik Weather History for the Previous 24 Hours

Scroll right to see more
 ConditionsComfort  
Time TempWeatherWind HumidityBarometerVisibility
5:50 AM
Thu, Jul 28
59 °FPassing clouds.8 mph100%29.74 "HgN/A
5:20 AM59 °FPassing clouds.8 mph100%29.74 "HgN/A
4:50 AM59 °FPartly cloudy.8 mph100%29.74 "HgN/A
4:20 AM59 °FPassing clouds.10 mph100%29.74 "HgN/A
3:50 AM59 °FPassing clouds.14 mph100%29.74 "HgN/A
3:20 AM61 °FMostly cloudy.12 mph100%29.74 "HgN/A
2:50 AM61 °FLow clouds.15 mph100%29.74 "HgN/A
2:20 AM61 °FPartly cloudy.15 mph100%29.74 "HgN/A
1:50 AM61 °FRain. Partly cloudy.15 mph100%29.77 "Hg4 mi
1:20 AM61 °FDrizzle. Mostly cloudy.14 mph100%29.77 "Hg4 mi
12:50 AM61 °FPassing clouds.13 mph100%29.77 "Hg5 mi
12:20 AM61 °FPassing clouds.9 mph100%29.80 "Hg6 mi
11:50 PM
Wed, Jul 27
61 °FPassing clouds.8 mph100%29.80 "HgN/A
11:20 PM61 °FLight rain. Passing clouds.13 mph100%29.80 "HgN/A
10:50 PM61 °FDrizzle. Partly sunny.13 mph100%29.80 "HgN/A
10:20 PM61 °FDrizzle. Broken clouds.13 mph100%29.80 "Hg6 mi
9:50 PM61 °FDrizzle. Broken clouds.15 mph100%29.83 "HgN/A
9:20 PM61 °FLight rain. Partly sunny.17 mph100%29.83 "Hg6 mi
8:50 PM63 °FDrizzle. Partly sunny.8 mph100%29.83 "Hg6 mi
8:20 PM63 °FDrizzle. Broken clouds.7 mph100%29.83 "HgN/A
7:50 PM63 °FLight rain. Partly sunny.9 mph94%29.86 "HgN/A
7:20 PM63 °FPartly sunny.12 mph94%29.86 "HgN/A
6:50 PM63 °FScattered clouds.13 mph94%29.89 "HgN/A
6:20 PM64 °FScattered clouds.12 mph83%29.89 "HgN/A
5:50 PM64 °FBroken clouds.14 mph83%29.89 "HgN/A
5:20 PM63 °FPartly sunny.12 mph94%29.92 "HgN/A
4:50 PM64 °FScattered showers. Broken clouds.15 mph83%29.92 "HgN/A
4:20 PM64 °FBroken clouds.14 mph83%29.92 "HgN/A
3:50 PM63 °FBroken clouds.15 mph83%29.92 "HgN/A
3:20 PM63 °FBroken clouds.14 mph88%29.95 "HgN/A
2:50 PM64 °FPartly sunny.15 mph78%29.95 "HgN/A
2:20 PM64 °FScattered clouds.15 mph78%29.95 "HgN/A
1:50 PM66 °FScattered clouds.14 mph78%29.95 "HgN/A
1:20 PM63 °FBroken clouds.12 mph83%29.95 "HgN/A
12:50 PM63 °FBroken clouds.12 mph88%29.98 "HgN/A
12:20 PM64 °FScattered showers. Scattered clouds.14 mph78%29.98 "HgN/A
11:50 AM64 °FScattered clouds.15 mph68%29.98 "HgN/A
11:20 AM64 °FScattered clouds.15 mph73%29.98 "HgN/A
10:50 AM64 °FScattered clouds.15 mph73%29.98 "HgN/A
10:20 AM64 °FPassing clouds.14 mph68%29.98 "HgN/A
9:50 AM64 °FPassing clouds.14 mph68%29.98 "HgN/A
9:20 AM63 °FPassing clouds.12 mph73%29.98 "HgN/A
8:50 AM63 °FPassing clouds.14 mph77%29.95 "HgN/A
8:20 AM61 °FPassing clouds.9 mph83%29.95 "HgN/A
7:50 AM59 °FSunny.9 mph88%29.95 "Hg10 mi
7:20 AM57 °FPassing clouds.3 mph94%29.95 "HgN/A
6:50 AM57 °FSunny.5 mph94%29.95 "Hg10 mi
6:20 AM55 °FSunny.5 mph100%29.95 "Hg10 mi
Weather by CustomWeather, © 2016

See weather overviewHow to use our weather pages